Time,TemperatureF,DewpointF,PressureIn,WindDirection,WindDirectionDegrees,WindSpeedMPH,WindSpeedGustMPH,Humidity,HourlyPrecipIn,Conditions,Clouds,dailyrainin,SoftwareType,DateUTC
2013-02-02 00:02:00,28.0,18.0,30.33,East,82,0.0,0.0,65,0.00,,,0.00,,2013-02-02 06:02:00,
2013-02-02 00:12:00,28.0,18.0,30.33,East,82,0.0,0.0,65,0.00,,,0.00,,2013-02-02 06:12:00,
2013-02-02 00:22:00,27.0,18.0,30.33,East,82,0.0,0.0,67,0.00,,,0.00,,2013-02-02 06:22:00,
2013-02-02 00:31:00,26.0,17.0,30.32,East,82,0.0,0.0,69,0.00,,,0.00,,2013-02-02 06:31:00,
2013-02-02 00:41:00,26.0,17.0,30.32,East,82,0.0,0.0,69,0.00,,,0.00,,2013-02-02 06:41:00,
2013-02-02 00:51:00,26.0,18.0,30.32,East,84,0.0,0.0,71,0.00,,,0.00,,2013-02-02 06:51:00,
2013-02-02 01:02:00,26.0,18.0,30.32,East,84,0.0,0.0,71,0.00,,,0.00,,2013-02-02 07:02:00,
2013-02-02 01:11:00,26.0,18.0,30.32,East,84,0.0,0.0,71,0.00,,,0.00,,2013-02-02 07:11:00,
2013-02-02 01:21:00,26.0,19.0,30.30,East,84,0.0,0.0,73,0.00,,,0.00,,2013-02-02 07:21:00,
2013-02-02 01:31:00,26.0,18.0,30.29,East,84,0.0,0.0,72,0.00,,,0.00,,2013-02-02 07:31:00,
2013-02-02 01:42:00,26.0,18.0,30.29,East,84,0.0,0.0,72,0.00,,,0.00,,2013-02-02 07:42:00,
2013-02-02 01:52:00,27.0,18.0,30.29,East,84,0.0,0.0,67,0.00,,,0.00,,2013-02-02 07:52:00,
2013-02-02 02:01:00,28.0,17.0,30.28,ESE,120,0.0,1.0,63,0.00,,,0.00,,2013-02-02 08:01:00,
2013-02-02 02:11:00,28.0,17.0,30.28,ESE,120,0.0,1.0,63,0.00,,,0.00,,2013-02-02 08:11:00,
2013-02-02 02:21:00,28.0,16.0,30.28,East,96,0.0,1.0,61,0.00,,,0.00,,2013-02-02 08:21:00,
2013-02-02 02:31:00,29.0,17.0,30.27,ENE,68,0.0,1.0,60,0.00,,,0.00,,2013-02-02 08:31:00,
2013-02-02 02:41:00,29.0,17.0,30.27,ENE,68,0.0,1.0,60,0.00,,,0.00,,2013-02-02 08:41:00,
2013-02-02 02:53:00,29.0,17.0,30.26,SSE,149,0.0,1.0,61,0.00,,,0.00,,2013-02-02 08:53:00,
2013-02-02 03:01:00,29.0,17.0,30.26,East,81,0.0,1.0,60,0.00,,,0.00,,2013-02-02 09:01:00,
2013-02-02 03:11:00,29.0,17.0,30.26,East,81,0.0,1.0,60,0.00,,,0.00,,2013-02-02 09:11:00,
2013-02-02 03:22:00,30.0,17.0,30.25,ENE,73,0.0,1.0,58,0.00,,,0.00,,2013-02-02 09:22:00,
2013-02-02 03:31:00,30.0,17.0,30.25,ENE,60,0.0,2.0,57,0.00,,,0.00,,2013-02-02 09:31:00,
2013-02-02 03:41:00,30.0,17.0,30.25,ENE,60,0.0,2.0,57,0.00,,,0.00,,2013-02-02 09:41:00,
2013-02-02 03:52:00,30.0,18.0,30.25,ENE,60,0.0,0.0,61,0.00,,,0.00,,2013-02-02 09:52:00,
2013-02-02 04:01:00,30.0,19.0,30.24,ENE,78,0.0,1.0,62,0.00,,,0.00,,2013-02-02 10:01:00,
2013-02-02 04:11:00,30.0,19.0,30.24,ENE,78,0.0,1.0,62,0.00,,,0.00,,2013-02-02 10:11:00,
2013-02-02 04:21:00,30.0,18.0,30.24,ENE,77,0.0,0.0,61,0.00,,,0.00,,2013-02-02 10:21:00,
2013-02-02 04:31:00,30.0,19.0,30.24,ENE,78,0.0,0.0,62,0.00,,,0.00,,2013-02-02 10:31:00,
2013-02-02 04:42:00,30.0,19.0,30.24,ENE,78,0.0,0.0,62,0.00,,,0.00,,2013-02-02 10:42:00,
2013-02-02 04:52:00,30.0,19.0,30.24,ENE,78,0.0,1.0,64,0.00,,,0.00,,2013-02-02 10:52:00,
2013-02-02 05:01:00,31.0,21.0,30.25,East,101,0.0,0.0,66,0.00,,,0.00,,2013-02-02 11:01:00,
2013-02-02 05:11:00,31.0,21.0,30.25,East,101,0.0,0.0,66,0.00,,,0.00,,2013-02-02 11:11:00,
2013-02-02 05:21:00,31.0,23.0,30.26,SW,215,0.0,1.0,72,0.00,,,0.00,,2013-02-02 11:21:00,
2013-02-02 05:32:00,31.0,24.0,30.27,SSW,198,0.0,1.0,75,0.00,,,0.00,,2013-02-02 11:32:00,
2013-02-02 05:42:00,31.0,24.0,30.27,SSW,198,0.0,1.0,75,0.00,,,0.00,,2013-02-02 11:42:00,
2013-02-02 05:52:00,31.0,24.0,30.27,SSW,198,0.0,1.0,75,0.00,,,0.00,,2013-02-02 11:52:00,
2013-02-02 06:01:00,31.0,25.0,30.27,SSW,198,0.0,0.0,78,0.00,,,0.00,,2013-02-02 12:01:00,
2013-02-02 06:11:00,31.0,25.0,30.27,SSW,198,0.0,0.0,78,0.00,,,0.00,,2013-02-02 12:11:00,
2013-02-02 06:22:00,31.0,25.0,30.27,SSE,150,0.0,0.0,79,0.00,,,0.00,,2013-02-02 12:22:00,
2013-02-02 06:32:00,31.0,26.0,30.26,SE,134,0.0,1.0,80,0.00,,,0.00,,2013-02-02 12:32:00,
2013-02-02 06:42:00,31.0,26.0,30.26,SE,134,0.0,1.0,80,0.00,,,0.00,,2013-02-02 12:42:00,
2013-02-02 06:52:00,31.0,25.0,30.26,SE,133,0.0,1.0,79,0.00,,,0.00,,2013-02-02 12:52:00,
2013-02-02 07:02:00,31.0,25.0,30.27,SE,133,0.0,0.0,79,0.00,,,0.00,,2013-02-02 13:02:00,
2013-02-02 07:11:00,31.0,25.0,30.27,SE,133,0.0,0.0,79,0.00,,,0.00,,2013-02-02 13:11:00,
2013-02-02 07:21:00,31.0,26.0,30.27,ESE,113,0.0,0.0,81,0.00,,,0.00,,2013-02-02 13:21:00,
2013-02-02 07:32:00,31.0,26.0,30.27,ESE,113,0.0,0.0,80,0.00,,,0.00,,2013-02-02 13:32:00,
2013-02-02 07:42:00,31.0,26.0,30.27,ESE,113,0.0,0.0,80,0.00,,,0.00,,2013-02-02 13:42:00,
2013-02-02 07:52:00,32.0,27.0,30.27,ESE,113,0.0,0.0,80,0.00,,,0.00,,2013-02-02 13:52:00,
2013-02-02 08:02:00,32.0,27.0,30.27,ESE,113,0.0,1.0,80,0.00,,,0.00,,2013-02-02 14:02:00,
2013-02-02 08:11:00,32.0,27.0,30.27,ESE,113,0.0,1.0,80,0.00,,,0.00,,2013-02-02 14:11:00,
2013-02-02 08:22:00,32.0,27.0,30.27,ESE,111,0.0,1.0,81,0.00,,,0.00,,2013-02-02 14:22:00,
2013-02-02 08:32:00,32.0,27.0,30.27,ESE,111,0.0,1.0,81,0.00,,,0.00,,2013-02-02 14:32:00,
2013-02-02 08:42:00,32.0,27.0,30.27,ESE,111,0.0,1.0,81,0.00,,,0.00,,2013-02-02 14:42:00,
2013-02-02 08:52:00,32.0,26.0,30.26,SE,129,0.0,1.0,79,0.00,,,0.00,,2013-02-02 14:52:00,
2013-02-02 09:03:00,33.0,27.0,30.26,SW,229,0.0,1.0,77,0.00,,,0.00,,2013-02-02 15:03:00,
2013-02-02 09:12:00,33.0,27.0,30.26,SW,229,0.0,1.0,77,0.00,,,0.00,,2013-02-02 15:12:00,
2013-02-02 09:22:00,33.0,27.0,30.26,ENE,65,0.0,1.0,79,0.00,,,0.00,,2013-02-02 15:22:00,
2013-02-02 09:32:00,34.0,27.0,30.25,East,83,0.0,2.0,76,0.00,,,0.00,,2013-02-02 15:32:00,
2013-02-02 09:42:00,34.0,27.0,30.25,East,83,0.0,2.0,76,0.00,,,0.00,,2013-02-02 15:42:00,
2013-02-02 09:52:00,35.0,28.0,30.25,ESE,105,0.0,1.0,74,0.00,,,0.00,,2013-02-02 15:52:00,
2013-02-02 10:03:00,35.0,28.0,30.25,SW,225,0.0,3.0,74,0.00,,,0.00,,2013-02-02 16:03:00,
2013-02-02 10:11:00,35.0,28.0,30.25,SW,225,0.0,3.0,74,0.00,,,0.00,,2013-02-02 16:11:00,
2013-02-02 10:22:00,36.0,29.0,30.25,SW,215,1.0,4.0,74,0.00,,,0.00,,2013-02-02 16:22:00,
2013-02-02 10:32:00,37.0,29.0,30.24,SW,214,1.0,4.0,74,0.00,,,0.00,,2013-02-02 16:32:00,
2013-02-02 10:42:00,37.0,29.0,30.24,SW,214,1.0,4.0,74,0.00,,,0.00,,2013-02-02 16:42:00,
2013-02-02 10:52:00,38.0,30.0,30.24,SW,222,0.0,3.0,73,0.00,,,0.00,,2013-02-02 16:52:00,
2013-02-02 11:02:00,39.0,30.0,30.23,SSE,167,1.0,4.0,70,0.01,,,0.01,,2013-02-02 17:02:00,
2013-02-02 11:11:00,39.0,30.0,30.23,SSE,167,1.0,4.0,70,0.01,,,0.01,,2013-02-02 17:11:00,
2013-02-02 11:22:00,41.0,32.0,30.22,WSW,255,1.0,4.0,69,0.01,,,0.01,,2013-02-02 17:22:00,
2013-02-02 11:32:00,42.0,31.0,30.22,West,276,1.0,6.0,65,0.01,,,0.01,,2013-02-02 17:32:00,
2013-02-02 11:42:00,42.0,31.0,30.22,West,276,1.0,6.0,65,0.01,,,0.01,,2013-02-02 17:42:00,
2013-02-02 11:52:00,43.0,32.0,30.22,WSW,240,2.0,4.0,65,0.01,,,0.01,,2013-02-02 17:52:00,
2013-02-02 12:02:00,44.0,32.0,30.21,SW,225,0.0,7.0,63,0.00,,,0.01,,2013-02-02 18:02:00,
2013-02-02 12:12:00,44.0,32.0,30.21,SW,225,0.0,7.0,63,0.00,,,0.01,,2013-02-02 18:12:00,
2013-02-02 12:22:00,45.0,32.0,30.20,WSW,257,1.0,5.0,61,0.00,,,0.01,,2013-02-02 18:22:00,
2013-02-02 12:32:00,46.0,33.0,30.20,SSE,162,1.0,5.0,60,0.00,,,0.01,,2013-02-02 18:32:00,
2013-02-02 12:42:00,46.0,33.0,30.20,SSE,162,1.0,5.0,60,0.00,,,0.01,,2013-02-02 18:42:00,
2013-02-02 12:52:00,46.0,32.0,30.20,WSW,246,1.0,7.0,59,0.00,,,0.01,,2013-02-02 18:52:00,
2013-02-02 13:02:00,46.0,32.0,30.19,WSW,240,1.0,4.0,57,0.00,,,0.01,,2013-02-02 19:02:00,
2013-02-02 13:12:00,46.0,32.0,30.19,WSW,240,1.0,4.0,57,0.00,,,0.01,,2013-02-02 19:12:00,
2013-02-02 13:21:00,47.0,32.0,30.19,SSW,203,1.0,4.0,55,0.00,,,0.01,,2013-02-02 19:21:00,
2013-02-02 13:32:00,47.0,31.0,30.19,SSW,207,1.0,4.0,54,0.00,,,0.01,,2013-02-02 19:32:00,
2013-02-02 13:42:00,47.0,31.0,30.19,SSW,207,1.0,4.0,54,0.00,,,0.01,,2013-02-02 19:42:00,
2013-02-02 13:52:00,47.0,31.0,30.17,SSW,207,1.0,4.0,53,0.00,,,0.01,,2013-02-02 19:52:00,
2013-02-02 14:01:00,48.0,31.0,30.18,SW,233,2.0,5.0,52,0.00,,,0.01,,2013-02-02 20:01:00,
2013-02-02 14:11:00,48.0,31.0,30.18,SW,233,2.0,5.0,52,0.00,,,0.01,,2013-02-02 20:11:00,
2013-02-02 14:21:00,49.0,31.0,30.18,WSW,246,1.0,6.0,50,0.00,,,0.01,,2013-02-02 20:21:00,
2013-02-02 14:32:00,50.0,32.0,30.17,East,98,0.0,3.0,49,0.00,,,0.01,,2013-02-02 20:32:00,
2013-02-02 14:42:00,50.0,32.0,30.17,East,98,0.0,3.0,49,0.00,,,0.01,,2013-02-02 20:42:00,
2013-02-02 14:52:00,51.0,31.0,30.16,SSW,194,1.0,3.0,46,0.00,,,0.01,,2013-02-02 20:52:00,
2013-02-02 15:02:00,52.0,31.0,30.16,SSW,212,1.0,3.0,45,0.00,,,0.01,,2013-02-02 21:02:00,
2013-02-02 15:11:00,52.0,31.0,30.16,SSW,212,1.0,3.0,45,0.00,,,0.01,,2013-02-02 21:11:00,
2013-02-02 15:21:00,52.0,30.0,30.16,WSW,241,0.0,3.0,43,0.00,,,0.01,,2013-02-02 21:21:00,
2013-02-02 15:32:00,53.0,31.0,30.15,SW,219,0.0,3.0,42,0.00,,,0.01,,2013-02-02 21:32:00,
2013-02-02 15:42:00,53.0,31.0,30.15,SW,219,0.0,3.0,42,0.00,,,0.01,,2013-02-02 21:42:00,
2013-02-02 15:52:00,54.0,31.0,30.16,SSE,155,0.0,2.0,42,0.00,,,0.01,,2013-02-02 21:52:00,
2013-02-02 16:02:00,53.0,32.0,30.16,WSW,257,1.0,7.0,45,0.00,,,0.01,,2013-02-02 22:02:00,
2013-02-02 16:11:00,53.0,32.0,30.16,WSW,257,1.0,7.0,45,0.00,,,0.01,,2013-02-02 22:11:00,
2013-02-02 16:21:00,53.0,33.0,30.17,WSW,246,1.0,4.0,46,0.00,,,0.01,,2013-02-02 22:21:00,
2013-02-02 16:32:00,52.0,34.0,30.17,SSW,205,2.0,5.0,50,0.00,,,0.01,,2013-02-02 22:32:00,
2013-02-02 16:42:00,52.0,34.0,30.17,SSW,205,2.0,5.0,50,0.00,,,0.01,,2013-02-02 22:42:00,
2013-02-02 16:52:00,51.0,34.0,30.18,SSW,210,0.0,4.0,52,0.00,,,0.01,,2013-02-02 22:52:00,
2013-02-02 17:02:00,50.0,34.0,30.17,WNW,289,1.0,4.0,54,0.00,,,0.01,,2013-02-02 23:02:00,
2013-02-02 17:11:00,50.0,34.0,30.17,WNW,289,1.0,4.0,54,0.00,,,0.01,,2013-02-02 23:11:00,
2013-02-02 17:21:00,49.0,34.0,30.18,SW,215,0.0,2.0,56,0.00,,,0.01,,2013-02-02 23:21:00,
2013-02-02 17:32:00,48.0,34.0,30.17,SSE,163,0.0,4.0,58,0.00,,,0.01,,2013-02-02 23:32:00,
2013-02-02 17:42:00,48.0,34.0,30.17,SSE,163,0.0,4.0,58,0.00,,,0.01,,2013-02-02 23:42:00,
2013-02-02 17:52:00,47.0,33.0,30.18,SW,214,0.0,1.0,59,0.00,,,0.01,,2013-02-02 23:52:00,
2013-02-02 18:02:00,46.0,34.0,30.18,SW,224,0.0,1.0,62,0.00,,,0.01,,2013-02-03 00:02:00,
2013-02-02 18:11:00,46.0,34.0,30.18,SW,224,0.0,1.0,62,0.00,,,0.01,,2013-02-03 00:11:00,
2013-02-02 18:22:00,45.0,34.0,30.19,SW,235,0.0,1.0,64,0.00,,,0.01,,2013-02-03 00:22:00,
2013-02-02 18:32:00,44.0,34.0,30.19,SW,235,0.0,0.0,68,0.00,,,0.01,,2013-02-03 00:32:00,
2013-02-02 18:41:00,44.0,34.0,30.19,SW,235,0.0,0.0,68,0.00,,,0.01,,2013-02-03 00:41:00,
2013-02-02 18:52:00,42.0,33.0,30.19,SW,234,0.0,0.0,70,0.00,,,0.01,,2013-02-03 00:52:00,
2013-02-02 19:02:00,41.0,33.0,30.20,SW,235,0.0,0.0,73,0.00,,,0.01,,2013-02-03 01:02:00,
2013-02-02 19:11:00,41.0,33.0,30.20,SW,235,0.0,0.0,73,0.00,,,0.01,,2013-02-03 01:11:00,
2013-02-02 19:21:00,40.0,33.0,30.21,SW,235,0.0,0.0,76,0.00,,,0.01,,2013-02-03 01:21:00,
2013-02-02 19:32:00,38.0,32.0,30.21,SW,235,0.0,0.0,79,0.00,,,0.01,,2013-02-03 01:32:00,
2013-02-02 19:42:00,38.0,32.0,30.21,SW,235,0.0,0.0,79,0.00,,,0.01,,2013-02-03 01:42:00,
2013-02-02 19:52:00,38.0,33.0,30.22,SW,235,0.0,0.0,82,0.00,,,0.01,,2013-02-03 01:52:00,
2013-02-02 20:01:00,37.0,32.0,30.22,SW,235,0.0,0.0,82,0.00,,,0.01,,2013-02-03 02:01:00,
2013-02-02 20:11:00,37.0,32.0,30.22,SW,235,0.0,0.0,82,0.00,,,0.01,,2013-02-03 02:11:00,
2013-02-02 20:21:00,37.0,33.0,30.21,SW,234,0.0,0.0,84,0.00,,,0.01,,2013-02-03 02:21:00,
2013-02-02 20:32:00,36.0,33.0,30.21,SW,234,0.0,0.0,87,0.00,,,0.01,,2013-02-03 02:32:00,
2013-02-02 20:42:00,36.0,33.0,30.21,SW,234,0.0,0.0,87,0.00,,,0.01,,2013-02-03 02:42:00,
2013-02-02 20:52:00,36.0,33.0,30.20,SW,235,0.0,0.0,88,0.00,,,0.01,,2013-02-03 02:52:00,
2013-02-02 21:02:00,36.0,33.0,30.21,SW,235,0.0,0.0,88,0.00,,,0.01,,2013-02-03 03:02:00,
2013-02-02 21:11:00,36.0,33.0,30.21,SW,235,0.0,0.0,88,0.00,,,0.01,,2013-02-03 03:11:00,
2013-02-02 21:21:00,36.0,33.0,30.21,SW,235,0.0,0.0,88,0.00,,,0.01,,2013-02-03 03:21:00,
2013-02-02 21:31:00,36.0,33.0,30.21,SW,235,0.0,0.0,88,0.00,,,0.01,,2013-02-03 03:31:00,
2013-02-02 21:42:00,36.0,33.0,30.21,SW,235,0.0,0.0,88,0.00,,,0.01,,2013-02-03 03:42:00,
2013-02-02 21:52:00,35.0,32.0,30.21,SW,234,0.0,0.0,89,0.00,,,0.01,,2013-02-03 03:52:00,
2013-02-02 22:01:00,35.0,32.0,30.21,SW,234,0.0,0.0,89,0.00,,,0.01,,2013-02-03 04:01:00,
2013-02-02 22:11:00,35.0,32.0,30.21,SW,234,0.0,0.0,89,0.00,,,0.01,,2013-02-03 04:11:00,
2013-02-02 22:21:00,34.0,31.0,30.20,WSW,238,0.0,1.0,90,0.00,,,0.01,,2013-02-03 04:21:00,
2013-02-02 22:31:00,35.0,33.0,30.20,WSW,246,0.0,0.0,91,0.00,,,0.01,,2013-02-03 04:31:00,
2013-02-02 22:42:00,35.0,33.0,30.20,WSW,246,0.0,0.0,91,0.00,,,0.01,,2013-02-03 04:42:00,
2013-02-02 22:52:00,36.0,33.0,30.20,WSW,246,0.0,1.0,88,0.00,,,0.01,,2013-02-03 04:52:00,
2013-02-02 23:03:00,35.0,32.0,30.20,WSW,246,0.0,0.0,88,0.00,,,0.01,,2013-02-03 05:03:00,
2013-02-02 23:11:00,35.0,32.0,30.20,WSW,246,0.0,0.0,88,0.00,,,0.01,,2013-02-03 05:11:00,
2013-02-02 23:22:00,35.0,32.0,30.20,WSW,246,0.0,0.0,88,0.00,,,0.01,,2013-02-03 05:22:00,
2013-02-02 23:32:00,35.0,32.0,30.19,WSW,246,0.0,0.0,90,0.00,,,0.01,,2013-02-03 05:32:00,
2013-02-02 23:42:00,35.0,32.0,30.19,WSW,246,0.0,0.0,90,0.00,,,0.01,,2013-02-03 05:42:00,
2013-02-02 23:52:00,34.0,32.0,30.19,WSW,246,0.0,0.0,91,0.00,,,0.01,,2013-02-03 05:52:00,